Back to catalog

NOAA 16 DEB

AliveSSO
NORAD 41084·DEBRIS·🇺🇸 United States

Launched Sep 21, 2000 from Vandenberg Space Force Base

Loading…

Next Passes (next 24 hours)

TLE

FreshSource: Space-Track

Epoch: Sep 14, 2026, 04:48 UTC

1 41084U 00055AT  26257.20049446  .00000816  00000-0  37526-3 0  9999
2 41084  98.6907 342.7519 0014531 325.8560  34.1683 14.23840277558834

Track NOAA 16 DEB in real time with AllMySat

Download on the App Store